FW7213 Weather Reports


Display with metric or nautical units.
time (UTC)temp
F
wind
direction
speed
MPH
gust
MPH
rain 1hr
in
rain 24hr
in
rain mn
in
humidity
%
barometer
mb
20260508131607 63 132 0.0 5.0 0.00 0.03 0.00 93 1017.5
20260508131058 63 0 0.0 5.0 0.00 0.03 0.00 94 1017.5
20260508130559 62 89 0.0 1.0 0.00 0.03 0.00 95 1017.4
20260508130055 62 0 0.0 1.0 0.00 0.03 0.00 95 1017.4
20260508125559 62 112 0.0 1.0 0.00 0.04 0.00 96 1017.5
20260508125055 62 0 0.0 1.0 0.00 0.04 0.00 97 1017.5
20260508124559 61 0 0.0 1.0 0.00 0.04 0.00 97 1017.5
20260508124058 61 0 0.0 1.0 0.00 0.04 0.00 97 1017.4
20260508123558 61 0 0.0 1.0 0.00 0.04 0.00 97 1017.5
20260508123116 61 0 0.0 1.0 0.00 0.04 0.00 97 1017.4
20260508122558 61 0 0.0 1.0 0.00 0.04 0.00 97 1017.3
20260508122056 60 0 0.0 1.0 0.00 0.04 0.00 97 1017.0
20260508121610 60 0 0.0 0.0 0.00 0.04 0.00 97 1017.1
20260508121058 60 0 0.0 0.0 0.00 0.04 0.00 97 1017.1
20260508120557 60 0 0.0 0.0 0.00 0.04 0.00 97 1016.9
20260508120112 60 0 0.0 1.0 0.00 0.04 0.00 97 1016.7
20260508115558 60 0 0.0 1.0 0.00 0.85 0.00 97 1016.8
20260508115055 60 0 0.0 4.0 0.00 0.85 0.00 97 1016.5
20260508114602 60 0 0.0 4.0 0.00 0.85 0.00 97 1016.3
20260508114058 60 0 0.0 2.0 0.00 0.85 0.00 97 1015.9
20260508113559 60 0 0.0 2.0 0.00 0.85 0.00 97 1015.9
20260508113110 59 0 0.0 2.0 0.00 0.85 0.00 97 1015.8
20260508112558 59 83 0.0 1.0 0.00 0.85 0.00 97 1015.9
20260508112058 59 0 0.0 1.0 0.00 0.85 0.00 97 1015.8
20260508111603 59 0 0.0 0.0 0.00 0.85 0.00 97 1016.0
20260508111059 59 0 0.0 0.0 0.00 0.85 0.00 97 1016.0
20260508110559 59 0 0.0 0.0 0.00 0.85 0.00 97 1015.9
20260508110107 59 0 0.0 0.0 0.00 0.85 0.00 97 1015.9
20260508105558 59 0 0.0 0.0 0.00 2.22 0.00 97 1015.9
20260508105058 59 0 0.0 0.0 0.00 2.22 0.00 97 1015.9
20260508104559 59 0 0.0 0.0 0.00 2.22 0.00 97 1015.9
20260508104058 59 0 0.0 1.0 0.00 2.22 0.00 97 1016.0
20260508103559 59 0 0.0 1.0 0.00 2.22 0.00 97 1015.9
20260508103108 59 0 0.0 1.0 0.00 2.22 0.00 97 1015.9
20260508102557 59 0 0.0 1.0 0.00 2.22 0.00 97 1015.8
20260508102059 59 0 0.0 1.0 0.00 2.22 0.00 97 1015.8
20260508101605 59 0 0.0 1.0 0.00 2.22 0.00 97 1015.9
20260508101058 59 0 0.0 1.0 0.00 2.22 0.00 97 1015.8
20260508100558 59 0 0.0 1.0 0.00 2.22 0.00 97 1015.7
20260508100111 59 0 0.0 1.0 0.00 2.22 0.00 97 1015.7
20260508095559 59 0 0.0 1.0 0.00 2.22 0.00 97 1015.7
20260508095059 59 0 0.0 1.0 0.00 2.22 0.00 97 1015.6
20260508094558 59 140 0.0 0.0 0.00 2.22 0.00 97 1015.3
20260508094058 59 0 0.0 0.0 0.00 2.22 0.00 97 1015.2
20260508093558 58 0 0.0 0.0 0.00 2.22 0.00 97 1014.9
20260508093107 59 0 0.0 0.0 0.00 2.22 0.00 97 1014.8
20260508092556 59 0 0.0 0.0 0.00 2.22 0.00 97 1014.9
20260508092058 59 0 0.0 0.0 0.00 2.22 0.00 97 1014.9
20260508091608 59 0 0.0 0.0 0.00 2.22 0.00 97 1015.0
20260508091056 58 0 0.0 0.0 0.00 2.22 0.00 97 1015.1
20260508090556 58 0 0.0 0.0 0.00 2.22 0.00 97 1015.0
20260508090106 58 0 0.0 0.0 0.00 2.22 0.00 97 1015.0
20260508085557 58 0 0.0 1.0 0.00 2.33 0.00 97 1015.0
20260508085055 58 0 0.0 1.0 0.00 2.33 0.00 97 1015.2
20260508084559 58 0 0.0 1.0 0.00 2.33 0.00 97 1015.0
20260508084059 58 124 0.0 0.0 0.00 2.33 0.00 97 1015.0
20260508083556 59 0 0.0 0.0 0.00 2.33 0.00 97 1015.1
20260508083104 59 0 0.0 0.0 0.00 2.33 0.00 97 1015.0
20260508082558 59 0 0.0 0.0 0.00 2.33 0.00 97 1015.1
20260508082102 59 0 0.0 0.0 0.00 2.33 0.00 97 1015.1
20260508081610 59 0 0.0 0.0 0.00 2.33 0.00 97 1015.1
20260508081056 59 0 0.0 0.0 0.00 2.33 0.00 97 1015.0
20260508080558 59 0 0.0 1.0 0.00 2.33 0.00 97 1015.0
20260508075556 59 0 0.0 0.0 0.00 2.34 0.00 97 1014.9
20260508075058 59 0 0.0 0.0 0.00 2.34 0.00 97 1014.9
20260508074600 59 0 0.0 0.0 0.00 2.34 0.00 97 1014.9
20260508074058 59 0 0.0 0.0 0.00 2.34 0.00 97 1014.9
20260508073556 59 0 0.0 0.0 0.00 2.34 0.00 97 1015.1
20260508073100 60 0 0.0 0.0 0.00 2.34 0.00 97 1015.3
20260508072555 60 0 0.0 0.0 0.00 2.34 0.00 97 1015.3
20260508072056 60 0 0.0 0.0 0.00 2.34 0.00 97 1015.3
20260508071555 60 0 0.0 0.0 0.00 2.34 0.00 97 1015.2
20260508071057 60 0 0.0 0.0 0.00 2.34 0.00 97 1015.4
20260508070602 60 0 0.0 0.0 0.00 2.34 0.00 97 1015.6
20260508070101 60 0 0.0 0.0 0.00 2.34 0.00 97 1015.5
20260508065558 60 0 0.0 0.0 0.00 2.34 0.00 97 1015.6
20260508065056 60 0 0.0 0.0 0.00 2.34 0.00 97 1015.4
20260508064559 60 0 0.0 0.0 0.00 2.34 0.00 97 1015.3
20260508064056 60 0 0.0 1.0 0.00 2.34 0.00 97 1015.2
20260508063558 61 0 0.0 1.0 0.00 2.34 0.00 97 1015.3
20260508063104 61 0 0.0 1.0 0.00 2.34 0.00 97 1015.3
20260508062600 61 0 0.0 1.0 0.00 2.34 0.00 97 1015.5
20260508062058 61 0 0.0 1.0 0.00 2.34 0.00 97 1015.6
20260508061559 61 0 0.0 0.0 0.00 2.34 0.00 97 1015.6
20260508061059 61 0 0.0 1.0 0.00 2.34 0.00 96 1015.4
20260508060559 61 0 0.0 1.0 0.00 2.34 0.00 96 1015.3
20260508060056 61 0 0.0 1.0 0.00 2.34 0.00 96 1015.3
20260508055558 61 0 0.0 1.0 0.00 2.34 0.00 96 1015.4
20260508055059 62 0 0.0 1.0 0.00 2.34 0.00 96 1015.7
20260508054600 62 0 0.0 1.0 0.00 2.34 0.00 96 1015.7
20260508054058 62 0 0.0 1.0 0.00 2.34 0.00 96 1015.7
20260508053558 62 0 0.0 1.0 0.00 2.34 0.00 96 1015.5
20260508053107 62 0 0.0 1.0 0.00 2.34 0.00 96 1015.5
20260508052557 62 0 0.0 2.0 0.00 2.34 0.00 96 1015.6
20260508052101 62 353 0.0 2.0 0.00 2.34 0.00 96 1015.5
20260508051556 62 0 0.0 1.0 0.00 2.34 0.00 96 1015.6
20260508051058 62 0 0.0 1.0 0.00 2.34 0.00 96 1015.6
20260508050557 62 349 0.0 2.0 0.00 2.34 0.00 95 1015.8
20260508050103 62 0 0.0 2.0 0.00 2.34 0.00 95 1015.9
20260508045557 62 352 0.0 1.0 0.00 2.34 2.34 95 1016.0
20260508045057 62 352 0.0 1.0 0.00 2.34 2.34 95 1016.1
20260508044558 62 0 0.0 1.0 0.00 2.34 2.34 95 1016.2
20260508044101 62 0 0.0 0.0 0.00 2.34 2.34 95 1016.0
20260508043558 62 0 0.0 0.0 0.00 2.34 2.34 95 1016.2
20260508043105 62 0 0.0 0.0 0.00 2.34 2.34 95 1016.1
20260508042558 63 0 0.0 0.0 0.00 2.34 2.34 95 1016.0
20260508042059 63 0 0.0 1.0 0.00 2.34 2.34 95 1016.0
20260508041601 63 0 0.0 1.0 0.00 2.34 2.34 95 1016.0
20260508041058 63 0 0.0 2.0 0.00 2.34 2.34 95 1016.1
20260508040559 63 342 0.0 2.0 0.00 2.34 2.34 95 1016.3
20260508040057 63 342 0.0 1.0 0.00 2.34 2.34 95 1016.1
20260508035600 63 330 0.0 1.0 0.00 2.34 2.34 95 1016.3
20260508035058 63 326 0.0 1.0 0.00 2.34 2.34 95 1016.4
20260508034610 63 0 0.0 1.0 0.00 2.34 2.34 95 1016.4
20260508034057 63 0 0.0 2.0 0.00 2.34 2.34 95 1016.6
20260508033559 63 0 0.0 2.0 0.00 2.34 2.34 95 1016.6
20260508033057 63 307 0.0 1.0 0.00 2.34 2.34 94 1016.6
20260508032558 63 0 0.0 1.0 0.00 2.34 2.34 94 1016.7
20260508032057 64 349 0.0 1.0 0.00 2.34 2.34 94 1016.6
20260508031559 64 352 0.0 2.0 0.00 2.34 2.34 94 1016.4
20260508031059 64 350 0.0 2.0 0.00 2.34 2.34 94 1016.1
20260508030556 64 8 1.0 2.0 0.00 2.34 2.34 93 1016.0
20260508030059 64 28 1.0 3.0 0.00 2.34 2.34 93 1016.1
20260508025558 64 336 0.0 3.0 0.00 2.34 2.34 94 1016.1
20260508025058 64 0 0.0 3.0 0.00 2.34 2.34 93 1016.0
20260508024600 64 357 1.0 2.0 0.00 2.34 2.34 94 1015.9
20260508024059 64 48 1.0 2.0 0.00 2.34 2.34 94 1015.9
20260508023559 65 0 0.0 2.0 0.00 2.34 2.34 94 1015.8
20260508023100 65 360 1.0 2.0 0.00 2.34 2.34 94 1015.8
20260508022559 65 344 0.0 2.0 0.00 2.34 2.34 94 1015.7
20260508022059 65 350 1.0 2.0 0.00 2.34 2.34 93 1015.6
20260508021601 65 8 1.0 3.0 0.00 2.34 2.34 93 1015.5
20260508021058 65 353 0.0 3.0 0.00 2.34 2.34 93 1015.5
20260508020557 66 341 1.0 2.0 0.00 2.34 2.34 93 1015.5
20260508015557 66 1 1.0 2.0 0.00 2.34 2.34 93 1015.4
20260508015057 66 350 0.0 2.0 0.00 2.34 2.34 93 1015.3
20260508014559 66 350 0.0 2.0 0.00 2.34 2.34 93 1015.3
20260508014057 66 0 1.0 3.0 0.00 2.34 2.34 93 1015.4
20260508013557 66 349 1.0 3.0 0.00 2.34 2.34 93 1015.3
20260508013100 67 0 1.0 4.0 0.00 2.34 2.34 93 1015.3
20260508012556 67 344 1.0 4.0 0.00 2.34 2.34 93 1015.2
20260508012056 67 0 1.0 2.0 0.00 2.34 2.34 93 1015.2
20260508011604 67 347 0.0 2.0 0.00 2.34 2.34 92 1015.1
20260508011055 67 335 1.0 2.0 0.00 2.34 2.34 92 1015.1
20260508010555 67 3 1.0 2.0 0.00 2.34 2.34 92 1015.0
20260508010058 68 338 1.0 2.0 0.00 2.34 2.34 92 1015.1
20260508005600 68 352 1.0 2.0 0.00 2.34 2.34 92 1015.0
20260508005100 68 347 0.0 2.0 0.00 2.34 2.34 92 1015.1
20260508004557 68 341 0.0 2.0 0.00 2.34 2.34 91 1015.1
20260508004101 69 352 1.0 2.0 0.00 2.34 2.34 91 1015.0
20260508003558 69 359 1.0 2.0 0.00 2.34 2.34 91 1014.8
20260508003056 69 354 0.0 2.0 0.00 2.34 2.34 91 1014.8
20260508002558 69 352 1.0 2.0 0.00 2.34 2.34 90 1014.7
20260508002058 69 346 0.0 2.0 0.00 2.34 2.34 90 1014.9
20260508001617 70 348 1.0 2.0 0.00 2.34 2.34 90 1014.6
20260508001058 70 321 0.0 2.0 0.00 2.34 2.34 90 1014.6
20260508000558 70 0 0.0 2.0 0.00 2.34 2.34 90 1014.5
20260508000058 71 350 0.0 2.0 0.00 2.34 2.34 90 1014.6
20260507235600 71 291 0.0 2.0 0.00 2.35 2.34 89 1014.5
20260507235102 71 349 0.0 2.0 0.00 2.35 2.34 89 1014.5
20260507234602 71 0 0.0 2.0 0.00 2.35 2.34 89 1014.5
20260507234106 72 349 0.0 2.0 0.00 2.35 2.34 89 1014.3
20260507233556 72 334 0.0 2.0 0.00 2.35 2.34 89 1014.4
20260507233057 72 345 0.0 3.0 0.00 2.35 2.34 89 1014.3
20260507232555 72 0 0.0 3.0 0.00 2.35 2.34 88 1014.4
20260507232055 73 0 0.0 2.0 0.00 2.35 2.34 91 1014.3
20260507231557 73 0 0.0 2.0 0.00 2.35 2.34 88 1014.3
20260507231056 73 0 0.0 2.0 0.00 2.35 2.34 88 1014.3
20260507230556 73 333 0.0 1.0 0.00 2.35 2.34 88 1014.2
20260507230058 73 0 0.0 1.0 0.00 2.35 2.34 88 1014.2
20260507225555 74 291 0.0 1.0 0.00 2.35 2.34 87 1014.2
20260507225058 74 0 0.0 1.0 0.00 2.35 2.34 87 1014.1
20260507224601 74 0 0.0 1.0 0.00 2.35 2.34 87 1014.1
20260507224055 74 342 0.0 1.0 0.00 2.35 2.34 87 1014.1
20260507223557 75 0 0.0 1.0 0.00 2.35 2.34 86 1014.1
20260507223101 75 0 0.0 2.0 0.00 2.35 2.34 86 1014.0
20260507222556 75 0 0.0 2.0 0.00 2.35 2.34 85 1014.0
20260507222058 75 355 0.0 2.0 0.00 2.35 2.34 84 1014.1
20260507221555 76 0 0.0 1.0 0.00 2.35 2.34 87 1014.0
20260507221056 76 0 0.0 1.0 0.00 2.35 2.34 88 1014.0
20260507220558 76 0 0.0 1.0 0.00 2.35 2.34 88 1013.9
20260507220056 76 0 0.0 1.0 0.00 2.35 2.34 89 1014.0
20260507215558 75 0 0.0 1.0 0.00 2.52 2.34 85 1014.0
20260507215057 75 0 0.0 2.0 0.00 2.52 2.34 85 1014.0
20260507214602 75 269 0.0 2.0 0.00 2.52 2.34 85 1014.1
20260507214056 75 0 0.0 1.0 0.00 2.52 2.34 85 1014.1
20260507213559 76 0 0.0 2.0 0.00 2.52 2.34 85 1014.1
20260507213057 76 0 0.0 2.0 0.00 2.52 2.34 86 1014.0
20260507212559 76 0 0.0 1.0 0.00 2.52 2.34 85 1014.0
20260507212055 76 0 0.0 2.0 0.00 2.52 2.34 88 1013.9
20260507211558 76 332 0.0 2.0 0.00 2.52 2.34 85 1013.9
20260507211058 76 0 0.0 3.0 0.00 2.52 2.34 85 1013.9
20260507210603 76 0 0.0 3.0 0.00 2.52 2.34 86 1013.8
20260507210058 76 353 0.0 3.0 0.00 2.52 2.34 86 1013.7
20260507205558 76 0 0.0 3.0 0.00 2.52 2.34 89 1013.7
20260507205058 76 352 0.0 2.0 0.00 2.52 2.34 89 1013.7
20260507204600 76 0 1.0 4.0 0.00 2.52 2.34 85 1013.8
20260507204058 77 0 0.0 4.0 0.00 2.52 2.34 86 1013.9
20260507203558 77 8 1.0 4.0 0.00 2.52 2.34 89 1013.7
20260507203103 77 348 1.0 4.0 0.00 2.52 2.34 86 1013.7
20260507202559 77 314 0.0 4.0 0.00 2.52 2.34 91 1013.6
20260507202058 76 0 0.0 4.0 0.00 2.52 2.34 91 1013.7
20260507201601 76 0 0.0 4.0 0.00 2.52 2.34 90 1013.7
20260507201058 76 320 0.0 4.0 0.00 2.52 2.34 89 1013.8
20260507200559 76 0 0.0 4.0 0.00 2.52 2.34 89 1013.8
20260507200108 76 296 1.0 6.0 0.00 2.52 2.34 90 1013.9
20260507195559 76 266 1.0 6.0 0.00 2.52 2.34 88 1013.8
20260507195058 76 64 3.0 5.0 0.00 2.52 2.34 90 1013.8
20260507194557 76 303 1.0 5.0 0.00 2.52 2.34 90 1013.8
20260507194058 76 278 1.0 6.0 0.00 2.52 2.34 88 1014.0
20260507193558 76 262 0.0 6.0 0.00 2.52 2.34 93 1014.0
20260507193058 75 271 2.0 6.0 0.00 2.52 2.34 92 1014.0
20260507192558 76 170 0.0 5.0 0.00 2.52 2.34 92 1013.9
20260507192101 75 235 1.0 5.0 0.00 2.52 2.34 90 1013.9
20260507191558 74 214 1.0 5.0 0.00 2.52 2.34 91 1014.0
20260507191059 74 220 1.0 4.0 0.00 2.52 2.34 95 1014.1
20260507190558 73 276 1.0 4.0 0.00 2.52 2.34 95 1014.0
20260507190057 73 251 0.0 4.0 0.00 2.52 2.34 95 1014.1
20260507185557 73 263 2.0 4.0 0.00 2.52 2.34 93 1014.2
20260507185058 72 235 0.0 4.0 0.00 2.52 2.34 95 1014.3
20260507184605 72 0 1.0 4.0 0.00 2.52 2.34 98 1014.3
20260507184058 72 266 0.0 3.0 0.00 2.52 2.34 95 1014.5
20260507183558 71 275 0.0 2.0 0.00 2.52 2.34 96 1014.5
20260507183059 71 338 0.0 2.0 0.00 2.52 2.34 96 1014.6
20260507182557 71 285 0.0 3.0 0.00 2.52 2.34 96 1014.6
20260507182058 71 264 0.0 3.0 0.00 2.52 2.34 96 1014.6
20260507181603 71 296 0.0 4.0 0.00 2.52 2.34 97 1014.6
20260507181057 71 300 1.0 4.0 0.00 2.52 2.34 96 1014.7
20260507180601 71 236 0.0 4.0 0.00 2.52 2.34 97 1015.1
20260507180057 71 278 0.0 4.0 0.00 2.52 2.34 97 1015.0
20260507175602 71 320 0.0 4.0 0.00 2.52 2.34 97 1015.0
20260507175056 71 247 1.0 2.0 0.00 2.52 2.34 97 1014.9
20260507174606 71 359 0.0 3.0 0.00 2.52 2.34 97 1015.0
20260507174059 71 325 0.0 3.0 0.00 2.52 2.34 97 1014.9
20260507173555 71 295 0.0 3.0 0.00 2.52 2.34 97 1014.8
20260507173058 71 339 0.0 3.0 0.00 2.52 2.34 97 1014.8
20260507172601 70 355 1.0 3.0 0.01 2.52 2.34 97 1014.9
20260507172058 71 350 0.0 3.0 0.01 2.52 2.34 97 1014.8
20260507171603 70 268 1.0 3.0 0.01 2.52 2.34 97 1014.8
20260507171058 70 349 0.0 2.0 0.01 2.52 2.34 97 1014.9
20260507170558 70 238 1.0 4.0 0.01 2.52 2.34 97 1014.8
20260507170059 70 302 0.0 4.0 0.01 2.52 2.34 97 1014.7
20260507165558 70 347 1.0 2.0 0.01 2.52 2.34 97 1014.9
20260507165058 70 266 0.0 3.0 0.01 2.52 2.34 97 1014.9
20260507164557 70 330 0.0 3.0 0.01 2.52 2.34 97 1014.9
20260507164100 70 349 1.0 3.0 0.01 2.52 2.34 97 1014.9
20260507163558 71 40 0.0 3.0 0.01 2.52 2.34 97 1015.0
20260507163059 71 319 1.0 3.0 0.01 2.52 2.34 97 1015.1
20260507162557 71 287 0.0 5.0 0.00 2.51 2.33 97 1015.1
20260507162058 71 233 0.0 5.0 0.00 2.51 2.33 97 1015.1
20260507161601 71 264 1.0 4.0 0.00 2.51 2.33 97 1015.1
20260507161057 71 231 1.0 5.0 0.00 2.51 2.33 97 1015.0
20260507160559 71 250 1.0 5.0 0.00 2.51 2.33 97 1015.1
20260507160058 70 0 1.0 3.0 0.00 2.51 2.33 97 1015.0
20260507155555 70 0 0.0 6.0 0.00 2.51 2.33 97 1015.0
20260507155055 70 0 1.0 6.0 0.00 2.51 2.33 97 1014.9
20260507154604 70 293 2.0 6.0 0.00 2.51 2.33 97 1014.9
20260507154056 70 245 1.0 4.0 0.00 2.51 2.33 97 1014.9
20260507153558 70 200 0.0 4.0 0.00 2.51 2.33 97 1014.9
20260507153102 70 271 2.0 4.0 0.00 2.51 2.33 97 1015.0
20260507152558 70 232 1.0 3.0 0.00 2.51 2.33 97 1014.9
20260507152057 70 0 0.0 4.0 0.01 2.51 2.33 97 1014.7
20260507151557 70 241 1.0 4.0 0.01 2.51 2.33 97 1014.8
20260507151058 70 237 2.0 4.0 0.01 2.51 2.33 97 1014.7
20260507150558 70 200 0.0 5.0 0.01 2.51 2.33 97 1014.6
20260507150056 70 147 0.0 5.0 0.01 2.51 2.33 97 1014.2
20260507145558 70 226 1.0 5.0 0.01 2.51 2.33 97 1014.6
20260507145057 70 265 1.0 3.0 0.01 2.51 2.33 97 1014.2
20260507144556 70 267 1.0 4.0 0.02 2.51 2.33 97 1014.3
20260507144056 70 218 1.0 4.0 0.02 2.51 2.33 97 1014.0
20260507143555 70 248 0.0 3.0 0.02 2.51 2.33 97 1014.2
20260507143058 70 235 1.0 5.0 0.02 2.51 2.33 97 1014.1
20260507142555 70 0 2.0 5.0 0.02 2.51 2.33 97 1014.3
20260507142055 70 217 0.0 7.0 0.01 2.50 2.33 97 1014.2
20260507141557 70 0 1.0 7.0 0.01 2.50 2.33 97 1013.8
20260507141058 70 136 1.0 4.0 0.01 2.50 2.33 97 1013.6
20260507140557 70 229 1.0 4.0 0.01 2.50 2.33 97 1013.8
20260507140100 70 176 0.0 7.0 0.01 2.50 2.33 97 1013.9
20260507135556 70 214 1.0 7.0 0.01 2.50 2.33 97 1013.8
20260507135058 70 281 0.0 2.0 0.01 2.50 2.33 97 1013.7
20260507134557 69 206 0.0 2.0 0.00 2.49 2.32 97 1013.8
20260507134057 69 0 0.0 2.0 0.01 2.49 2.32 97 1013.6
20260507133557 69 212 0.0 4.0 0.01 2.49 2.32 97 1013.9
20260507133106 69 238 1.0 4.0 0.01 2.49 2.32 97 1013.9
20260507132555 69 209 2.0 4.0 0.01 2.49 2.32 97 1014.1
20260507132055 69 256 1.0 5.0 0.01 2.49 2.32 97 1013.8